Flag for Germany Weather past 2 weeks in Tübingen, Baden-Württemberg, Germany

Now
66 °F

Sunny.


Feels Like: 66 °F
Forecast: 42 / 66 °F
Wind: 10 mph from North

Location: Stuttgart-Echterdingen

Current Time: Sep 4, 2015 at 2:27:20 PM

Latest Report: Sep 4, 2015 at 1:50 PM


Visibility: 10 mi

Pressure: 30.01 "Hg

Humidity: 46%

Dew point: 45 °F

Location of TübingenLocation

Historic Weather in Tübingen — Graph

°F

Tübingen temperature yesterday

Maximum temperature yesterday: 66 °F (at 12:50 PM)
Minimum temperature yesterday: 57 °F (at 4:20 AM)
Average temperature yesterday: 61 °F

Past Weeks' High & Low Weather Summary

 TemperatureHumidityPressure
High91 °F (Aug 30, 2:20 PM)100% (Aug 21, 6:20 AM)30.27 "Hg (Aug 21, 6:20 AM)
Low48 °F (Aug 26, 4:50 AM)20% (Aug 31, 5:20 PM)29.71 "Hg (Aug 24, 1:50 PM)
Average68 °F66%30.02 "Hg
* Reported Aug 20 1:20 PM — Sep 4 1:20 PM, Tübingen, Weather by CustomWeather, © 2015

Note: Actual official high and low records may vary slightly from our data, if they occured in-between our weather recording intervals... More about our weather records

Advertising

Tübingen weather history for previous 24 hours

 ConditionsComfort  
Time TempWeatherWind HumidityBarometerVisibility
1:20 PM
Fri, Sep 4
64 °FScattered clouds.9 mph46%30.01 "HgN/A
12:50 PM66 °FScattered clouds.7 mph43%30.01 "HgN/A
12:20 PM64 °FScattered clouds.7 mph43%30.01 "HgN/A
11:50 AM63 °FPartly sunny.7 mph49%30.04 "HgN/A
11:20 AM61 °FPartly sunny.5 mph55%30.04 "HgN/A
10:50 AM59 °FPartly sunny.7 mph59%30.04 "HgN/A
10:20 AM59 °FPartly sunny.6 mph63%30.04 "HgN/A
9:50 AM59 °FPassing clouds.6 mph63%30.04 "HgN/A
9:20 AM59 °FSunny.5 mph68%30.01 "Hg10 mi
8:50 AM55 °FPartly sunny.5 mph82%30.01 "HgN/A
8:20 AM55 °FPartly sunny.1 mph77%30.04 "HgN/A
7:50 AM54 °FLight rain. Partly sunny.2 mph82%30.01 "HgN/A
7:20 AM52 °FPassing clouds.1 mph88%30.01 "HgN/A
6:50 AM52 °FPassing clouds.2 mph82%30.01 "HgN/A
6:20 AM50 °FPassing clouds.5 mph88%30.01 "HgN/A
5:50 AM52 °FClear.3 mph88%30.01 "Hg10 mi
5:20 AM54 °FClear.2 mph82%30.01 "Hg10 mi
4:50 AM54 °FClear.2 mph82%30.01 "Hg10 mi
4:20 AM55 °FClear.No wind77%30.01 "Hg10 mi
3:50 AM55 °FClear.1 mph77%30.01 "Hg10 mi
3:20 AM57 °FClear.2 mph67%30.01 "Hg10 mi
2:50 AM55 °FClear.2 mph77%30.01 "Hg10 mi
2:20 AM57 °FClear.2 mph72%30.01 "Hg10 mi
1:50 AM57 °FClear.1 mph72%30.01 "Hg10 mi
1:20 AM57 °FClear.1 mph72%30.01 "Hg10 mi
12:50 AM57 °FClear.2 mph67%30.01 "Hg10 mi
12:20 AM57 °FClear.5 mph72%30.01 "Hg10 mi
11:20 PM
Thu, Sep 3
59 °FClear.6 mph68%30.01 "Hg10 mi
10:50 PM59 °FClear.3 mph68%30.01 "Hg10 mi
10:20 PM59 °FClear.9 mph63%30.01 "Hg10 mi
9:50 PM57 °FClear.7 mph67%30.01 "Hg10 mi
9:20 PM59 °FClear.6 mph68%30.01 "Hg10 mi
8:50 PM61 °FSunny.7 mph63%29.98 "Hg10 mi
8:20 PM63 °FScattered clouds.7 mph59%29.98 "HgN/A
7:50 PM63 °FScattered clouds.9 mph59%29.98 "HgN/A
7:20 PM64 °FScattered clouds.7 mph52%29.95 "HgN/A
6:50 PM66 °FScattered clouds.7 mph49%29.95 "HgN/A
6:20 PM66 °FPartly sunny.6 mph49%29.95 "HgN/A
5:50 PM66 °FPartly sunny.1 mph49%29.95 "HgN/A
5:20 PM66 °FBroken clouds.3 mph49%29.95 "HgN/A
4:50 PM66 °FPartly sunny.9 mph49%29.95 "HgN/A
4:20 PM66 °FBroken clouds.7 mph49%29.95 "HgN/A
3:50 PM66 °FBroken clouds.2 mph49%29.95 "HgN/A
3:20 PM66 °FPartly sunny.3 mph52%29.95 "HgN/A
2:50 PM66 °FBroken clouds.5 mph56%29.95 "HgN/A
2:20 PM64 °FBroken clouds.7 mph60%29.98 "HgN/A
Weather by CustomWeather, © 2015

See weather overviewHow to use our weather pages